Location: Dumpton Point
(51.3500°N, 1.4433°E)
Time: 07:53:37
(UTC+00:00)

Cosmos 2061 Rocket - Pass Details

Date: 09 April 2020
Orbit: 967 x 1012 km, 82.9° (Epoch: 02 June)

Event Time Altitude Azimuth Distance (km) Brightness Sun altitude
Rises 23:22:14 0° 350° (N) 3,686 8.2 -30.2°
Reaches altitude 10° 23:24:46 10° 352° (N) 2,740 7.3 -30.2°
Enters shadow 23:30:54 79° 59° (ENE) 1,009 4.0 -30.4°
